Temperature
24 24 24 24 24 24 23 23 22 23 23 23 23 23 22 22 21 20 20 19 18 18 17 17 16 16 16 16 15 15 15 14 14 14 14 14 14 14 14 14 13 13 13 13
23 24 24 24 24 24 23 23 23 23 22 23 23 22 22 21 21 20 19 19 18 18 17 17 16 16 16 15 15 15 15 15 14 14 14 14 14 14 13 13 13 13 13 13
22 24 24 23 23 23 23 23 23 22 22 23 22 22 21 20 20 19 19 18 18 17 17 16 16 16 16 15 15 15 14 14 14 14 14 14 13 13 13 13 13 13 13 13
22 22 21 22 24 23 23 23 23 23 22 22 22 21 20 20 19 18 18 17 17 17 17 16 16 16 16 15 15 14 14 14 14 14 14 13 13 13 13 13 13 13 13 13
21 21 22 22 23 23 22 22 22 22 22 21 21 20 20 19 18 18 17 17 17 16 16 16 16 16 15 15 15 14 14 14 14 13 13 13 13 13 13 12 12 12 12 12
21 20 20 21 22 22 22 21 21 21 21 20 20 19 18 18 17 17 17 16 16 16 16 16 16 15 15 15 14 14 14 13 13 13 13 13 13 13 12 12 12 12 12 12
20 20 21 21 21 21 20 20 21 20 20 20 19 18 18 17 16 16 16 16 15 15 15 15 15 15 15 14 14 14 13 13 13 13 12 12 12 12 12 12 12 12 11 11
20 20 19 20 21 20 20 20 20 19 19 19 18 17 17 16 16 15 15 15 15 15 15 14 14 14 14 14 14 13 13 13 12 12 12 12 12 12 11 11 11 11 11 11
20 19 19 19 19 19 19 19 19 18 18 18 17 16 16 15 15 15 15 14 14 14 14 14 14 14 13 13 13 13 12 12 12 12 11 11 11 11 11 11 11 11 10 10
20 19 19 19 18 18 18 18 18 17 17 17 16 16 15 15 14 14 14 14 13 13 13 13 13 13 13 13 12 12 12 12 11 11 11 11 10 10 10 10 10 10 10 10
19 19 18 18 17 17 17 17 16 16 16 16 15 15 15 14 14 14 13 13 13 13 13 12 12 12 12 12 12 11 11 11 11 11 11 10 10 10 10 10 10 10 10 10
17 18 17 17 16 16 16 16 16 15 15 15 14 14 14 14 13 13 13 13 12 12 12 12 12 12 11 11 11 11 11 11 10 10 10 10 10 10 10 10 10 9 9 9
17 16 16 16 15 15 15 15 15 14 14 14 14 14 13 13 13 13 12 12 12 12 11 11 11 11 11 11 10 10 10 10 10 10 10 10 9 9 9 9 9 9 9 9
15 15 15 15 15 14 14 14 14 14 13 13 13 13 13 13 12 12 12 12 11 11 11 11 11 11 10 10 10 10 10 9 9 9 9 9 9 9 9 9 9 9 9 9
14 14 14 14 14 14 13 13 13 13 13 12 12 12 12 12 12 11 11 11 11 11 11 10 10 10 10 10 10 9 9 9 9 9 9 9 9 9 9 8 8 8 8 8
14 14 13 13 13 13 13 12 12 12 12 12 11 11 11 11 11 11 11 10 10 10 10 10 10 10 10 9 9 9 9 9 9 8 8 8 8 8 8 8 8 8 8 8
13 13 13 13 12 12 12 12 12 11 11 11 11 11 10 10 10 10 10 10 10 10 10 9 9 9 9 9 9 8 8 8 8 8 8 8 7 7 8 7 7 7 7 7
12 12 12 12 12 11 11 11 11 11 10 10 10 10 10 10 10 9 9 9 9 9 9 9 9 9 8 8 8 8 8 7 7 7 7 7 7 7 7 7 7 7 7 7
11 11 11 11 11 11 10 10 10 10 10 10 9 9 9 9 9 9 9 9 8 8 8 8 8 8 8 7 7 7 7 7 7 7 7 6 6 6 6 6 6 6 6 6
11 10 10 10 10 10 10 9 9 9 9 9 9 8 8 8 8 8 8 8 8 8 7 7 7 7 7 7 7 7 7 7 6 6 6 6 6 6 6 6 6 6 6 6
10 10 10 9 9 9 9 9 9 8 8 8 8 8 7 7 7 7 7 7 7 7 7 7 7 7 6 6 6 6 6 6 6 6 6 6 5 5 5 5 5 5 5 5
9 9 9 9 9 8 8 8 8 8 7 7 7 7 7 7 7 7 7 6 6 6 6 6 6 6 6 6 6 6 6 5 5 5 5 5 5 5 5 5 5 5 5 5
8 8 8 8 8 8 8 7 7 7 7 6 6 6 6 6 6 6 6 6 6 6 6 6 6 6 5 5 5 5 5 5 5 5 5 5 5 5 5 4 4 4 4 4
8 8 7 7 7 7 7 7 6 6 6 6 6 6 6 5 5 5 5 5 5 5 5 5 5 5 5 5 5 5 5 4 4 4 4 4 4 4 4 4 4 4 4 4
7 7 7 7 6 6 6 6 6 5 5 5 5 5 5 5 5 5 4 4 4 5 4 4 4 5 4 4 4 4 4 4 4 4 4 4 4 4 4 4 4 4 4 3
6 6 6 6 6 5 5 5 5 5 4 4 4 4 4 4 4 4 4 4 4 4 4 4 4 4 4 4 4 4 4 4 3 3 3 3 3 3 3 3 3 3 3 3
6 5 5 5 5 5 4 4 4 4 4 4 4 4 4 4 3 3 3 3 3 3 3 3 3 3 3 3 3 3 3 3 3 3 3 3 3 3 3 3 3 3 3 3
Wind_Speed
8 7 7 7 7 7 8 7 7 6 3 2 0 2 4 4 4 4 4 4 4 4 4 4 4 4 4 3 3 3 3 3 3 2 1 2 1 1 1 1 2 2 2 2
10 9 9 10 9 8 8 8 8 6 5 2 2 4 3 3 3 3 2 3 3 4 4 4 4 4 4 4 4 4 4 3 2 2 2 2 2 2 2 2 2 2 2 3
10 9 10 10 7 7 7 6 6 6 3 1 2 2 2 3 3 2 1 1 1 2 3 3 3 4 4 5 4 4 4 4 3 3 2 3 3 2 2 2 2 2 2 2
9 10 10 3 1 2 3 3 4 3 2 2 2 2 3 3 2 2 2 1 0 0 1 2 2 2 3 4 4 4 3 3 3 3 3 3 3 3 3 3 3 3 3 3
7 9 8 4 1 1 3 3 2 2 2 2 1 0 2 4 3 3 2 1 0 1 0 1 2 2 3 4 4 3 3 3 3 3 3 3 3 3 3 3 3 3 3 3
7 9 7 1 3 2 4 3 3 2 2 2 2 2 1 3 4 3 3 1 1 1 1 0 1 2 3 3 4 3 3 3 3 3 3 3 4 3 3 3 3 3 3 3
9 10 5 1 2 1 3 2 5 4 3 2 3 2 2 3 2 2 2 2 2 2 2 1 1 1 2 2 3 3 3 3 3 3 3 3 3 3 2 3 3 3 4 4
7 9 4 3 1 1 3 4 4 4 4 4 4 4 3 2 2 2 2 2 2 2 2 2 1 1 1 2 2 2 2 3 3 3 4 3 3 3 3 3 3 3 3 3
3 2 2 2 3 3 4 5 5 5 4 3 2 2 2 2 1 1 1 1 2 2 2 2 1 1 2 2 2 2 3 3 3 3 3 3 3 3 3 3 3 3 3 3
5 2 1 1 2 3 4 5 5 4 4 3 2 2 2 3 2 2 2 2 2 2 2 2 2 2 2 2 2 2 2 3 3 3 3 2 2 3 3 3 3 4 4 4
8 5 2 1 2 3 4 5 5 4 3 3 3 3 3 3 3 3 2 2 2 3 3 3 3 3 3 2 2 2 3 3 3 3 3 2 2 3 4 4 4 4 3 3
6 5 4 2 3 5 4 5 5 4 4 4 3 3 3 3 2 2 3 3 3 3 3 3 3 4 3 2 3 3 3 3 2 2 2 3 3 2 3 4 5 5 5 4
6 6 5 4 4 4 4 5 5 4 4 4 4 3 3 3 3 3 3 4 4 4 4 4 4 3 3 3 3 4 4 3 2 2 2 3 3 3 3 3 4 5 6 6
4 5 6 5 5 4 5 5 4 4 4 4 4 4 3 3 3 3 4 4 3 3 4 4 3 3 3 3 3 4 4 4 3 3 3 3 3 4 3 3 3 3 5 6
5 5 4 4 4 4 4 4 4 4 4 4 4 4 4 4 4 4 4 3 3 3 4 3 4 4 3 3 3 4 4 3 3 3 3 3 3 4 3 4 3 3 2 3
5 4 4 4 4 4 4 4 4 4 4 4 4 4 4 4 4 4 4 4 4 4 4 4 4 3 3 3 4 4 4 6 5 4 3 3 4 4 4 4 4 4 4 3
5 5 4 4 4 4 5 5 4 4 4 5 5 4 4 4 5 4 4 4 4 5 4 3 3 4 3 3 3 3 3 4 5 4 4 4 4 4 4 4 4 4 4 4
3 3 4 4 4 5 5 5 5 5 4 4 4 4 4 5 5 5 4 4 4 4 3 3 4 4 4 3 3 3 3 3 3 4 4 4 4 4 4 4 4 4 3 3
3 3 4 4 4 4 4 5 5 5 5 4 4 4 5 5 5 5 4 4 4 4 4 3 6 5 4 3 3 2 3 3 4 4 4 4 4 4 3 3 3 3 3 3
3 3 4 3 4 4 4 4 4 5 4 4 4 4 5 5 5 5 5 4 3 3 3 4 4 4 3 3 4 3 3 3 4 3 3 3 4 4 4 4 3 3 3 3
3 3 4 4 4 4 4 4 4 4 4 4 4 4 5 5 5 4 4 4 4 4 4 4 3 3 2 3 3 3 3 3 3 4 4 3 3 4 4 4 4 4 4 3
3 3 4 4 4 4 3 4 4 4 4 4 4 5 5 5 5 5 4 3 3 4 3 3 3 4 4 4 3 3 3 3 3 3 3 3 3 4 4 4 4 4 3 3
4 3 4 4 4 4 4 4 4 4 4 4 4 4 5 4 4 4 4 3 3 5 4 3 4 6 6 4 3 3 3 3 3 3 3 3 3 3 4 4 4 3 3 3
4 4 4 4 4 4 4 4 4 4 4 4 4 4 4 4 4 3 3 5 6 6 4 4 5 6 6 3 3 3 4 3 3 3 3 3 3 3 3 3 3 3 3 4
4 4 4 4 4 3 4 4 4 4 4 3 4 4 4 3 3 4 4 4 5 6 4 5 6 7 4 3 3 4 4 4 4 3 3 3 3 3 3 3 3 3 3 3
4 3 3 3 3 3 3 3 3 3 3 3 4 4 4 3 4 4 4 4 5 6 5 4 4 4 4 4 4 4 3 3 4 4 3 3 3 3 3 4 4 4 4 3
3 3 2 2 2 2 3 3 3 4 4 4 5 4 4 4 4 4 4 4 4 4 4 4 4 4 4 4 4 3 3 3 3 3 3 3 3 3 3 4 4 4 3 4
Wind_Direction
283 278 275 273 265 255 255 266 274 283 277 253 340 94 112 123 131 132 144 143 146 154 161 163 169 173 170 169 171 171 167 174 185 188 197 175 172 179 187 190 196 201 189 173
279 268 265 264 263 260 260 265 271 274 285 311 81 87 90 111 120 133 145 147 150 158 165 172 179 184 182 179 183 177 173 180 178 183 185 178 188 200 201 199 206 208 204 185
282 280 274 264 258 252 256 261 275 276 282 1 52 57 77 93 98 102 94 96 140 168 169 181 192 186 182 179 171 177 179 181 180 182 183 190 195 199 206 206 217 229 221 198
278 282 268 273 317 269 260 280 305 314 355 12 52 53 70 84 97 87 77 79 35 267 158 169 185 175 165 162 167 176 184 186 181 182 196 201 195 199 212 216 214 225 227 216
272 276 273 253 224 254 262 266 280 293 350 29 52 122 87 62 59 74 79 72 23 306 290 188 187 184 176 175 175 175 183 198 193 192 201 207 212 212 219 219 219 219 227 222
265 272 276 333 65 359 297 267 35 26 18 20 343 268 114 63 48 49 51 48 24 325 320 296 221 199 193 187 181 190 194 202 204 202 205 217 224 226 222 214 218 220 228 234
256 264 270 43 59 313 267 16 44 17 11 8 359 18 51 60 49 33 34 19 5 337 330 333 311 250 210 204 198 193 190 196 206 210 212 219 224 228 220 220 223 225 227 236
256 260 258 46 25 8 10 25 29 17 17 25 30 35 30 31 17 7 19 5 346 324 315 329 329 305 246 237 232 186 186 194 204 211 219 217 211 220 217 220 222 225 230 239
278 298 58 41 34 20 351 352 13 12 7 25 18 3 357 347 329 340 323 310 298 291 291 303 304 283 268 259 237 207 196 203 217 218 216 211 208 215 221 219 219 220 223 234
277 250 207 336 17 12 355 349 355 357 354 354 340 333 332 317 318 326 321 324 314 300 292 294 289 268 273 273 247 223 208 213 224 221 216 217 217 219 223 227 225 224 227 229
276 281 282 268 4 351 341 341 336 339 336 324 316 309 307 302 304 314 307 294 287 283 283 284 289 282 271 263 252 245 234 226 226 226 215 214 220 222 217 222 215 219 230 231
286 316 306 323 354 333 328 329 326 325 320 321 314 304 298 292 295 295 294 286 274 271 268 265 267 276 276 257 241 251 253 247 238 225 216 209 215 247 248 228 225 225 229 231
305 326 327 324 328 327 324 322 320 313 304 301 304 302 300 296 289 286 285 282 274 271 270 271 269 266 267 255 243 243 242 239 233 233 232 223 221 220 233 263 257 246 242 244
314 312 301 317 324 328 320 316 316 315 317 321 321 318 311 302 298 292 286 282 282 281 275 277 279 275 267 258 252 249 243 242 238 228 230 231 235 232 222 223 241 256 251 243
298 301 293 301 307 312 316 314 308 310 322 324 322 319 312 306 303 298 297 294 291 288 284 283 281 277 278 269 258 255 251 241 233 230 229 233 236 232 224 228 237 245 243 242
291 294 290 290 292 302 305 304 301 306 316 316 315 314 312 313 309 304 300 299 291 284 281 280 282 285 280 267 260 257 248 246 242 233 228 232 237 234 227 225 232 237 236 233
274 276 281 286 292 298 302 305 304 305 310 313 313 318 319 316 310 304 304 303 299 294 292 299 310 314 299 277 264 260 249 238 239 241 234 233 236 236 234 234 236 238 240 227
284 301 303 300 297 299 302 306 308 307 307 305 311 316 315 311 308 307 307 310 307 310 319 333 331 318 307 298 289 276 263 251 244 241 240 240 243 241 239 239 241 246 248 239
294 300 306 306 307 306 307 307 308 308 308 311 315 315 311 311 313 317 317 308 302 301 309 324 319 311 302 301 299 279 268 263 259 253 245 246 248 247 243 240 243 245 242 232
300 307 311 311 313 309 306 310 311 310 313 316 317 313 311 312 316 317 314 310 309 311 317 322 315 303 297 299 301 284 274 266 260 260 252 241 239 243 244 245 245 245 245 240
325 322 322 322 319 319 317 314 313 314 319 320 313 310 311 313 315 313 312 309 319 334 331 319 310 305 305 311 300 287 281 273 263 260 256 248 248 248 247 249 251 252 250 247
322 323 323 322 321 320 319 318 318 320 323 323 321 317 313 311 314 317 316 314 323 332 332 314 311 319 322 319 294 284 282 278 268 261 255 252 250 251 252 254 256 257 255 249
317 316 312 313 312 310 314 317 321 318 320 322 319 318 319 316 313 311 313 324 334 336 337 317 319 321 320 310 291 284 278 274 272 267 264 261 257 256 255 255 253 256 259 257
310 310 308 309 306 303 307 320 323 319 319 319 320 321 317 315 315 316 314 321 327 321 317 308 306 304 300 285 277 279 279 276 271 265 263 264 263 264 265 264 260 254 251 252
302 300 304 313 312 314 319 323 322 320 320 320 319 317 315 314 310 313 313 312 313 315 313 304 303 306 301 286 278 276 275 272 274 277 273 266 262 265 268 268 265 264 262 255
303 305 306 303 307 309 307 307 310 312 313 310 308 311 316 316 312 310 309 305 303 304 305 303 300 297 295 297 292 288 286 287 289 286 278 273 266 261 263 267 270 266 263 264
307 308 306 299 296 296 297 298 298 299 300 302 305 308 309 309 306 306 307 309 309 307 307 305 300 295 294 297 297 298 296 291 290 293 294 290 287 284 277 271 266 264 262 263
Height
1493 1491 1491 1494 1494 1495 1498 1499 1505 1502 1500 1498 1496 1498 1500 1503 1505 1507 1509 1511 1512 1513 1515 1516 1517 1518 1519 1519 1520 1521 1522 1523 1523 1524 1525 1526 1527 1527 1528 1529 1530 1531 1532 1532
1495 1489 1489 1492 1492 1492 1494 1494 1496 1496 1498 1494 1495 1497 1500 1502 1504 1506 1508 1509 1511 1512 1513 1514 1515 1516 1516 1517 1518 1519 1519 1520 1521 1522 1523 1523 1524 1525 1526 1527 1527 1528 1529 1529
1499 1490 1490 1496 1490 1490 1492 1491 1493 1497 1496 1493 1495 1497 1499 1501 1503 1505 1507 1508 1509 1510 1511 1512 1513 1514 1514 1515 1516 1516 1517 1518 1518 1519 1520 1521 1521 1522 1523 1523 1524 1525 1526 1526
1498 1497 1506 1495 1484 1485 1488 1490 1490 1491 1492 1494 1496 1498 1500 1501 1503 1504 1506 1507 1508 1508 1509 1510 1511 1512 1512 1513 1513 1514 1514 1515 1515 1516 1517 1518 1518 1519 1519 1520 1521 1522 1522 1523
1500 1503 1496 1490 1486 1487 1490 1492 1490 1491 1492 1494 1496 1497 1500 1501 1502 1504 1505 1505 1506 1507 1507 1508 1508 1509 1510 1510 1511 1511 1512 1512 1513 1513 1514 1514 1514 1515 1516 1517 1517 1518 1518 1519
1499 1505 1505 1494 1487 1487 1490 1494 1490 1491 1493 1495 1496 1499 1501 1501 1502 1503 1504 1504 1504 1505 1505 1506 1506 1507 1507 1508 1508 1508 1508 1509 1510 1510 1510 1511 1511 1511 1512 1513 1513 1514 1514 1515
1500 1501 1495 1489 1488 1488 1499 1498 1493 1493 1494 1495 1496 1499 1500 1500 1501 1502 1502 1503 1503 1503 1503 1503 1504 1504 1504 1505 1505 1505 1505 1505 1506 1506 1507 1507 1508 1508 1508 1509 1509 1509 1510 1510
1495 1500 1501 1490 1490 1493 1495 1493 1493 1494 1495 1496 1497 1498 1499 1499 1500 1500 1500 1500 1501 1501 1501 1501 1501 1501 1501 1501 1501 1502 1502 1502 1502 1503 1503 1503 1503 1504 1504 1504 1505 1505 1505 1506
1492 1496 1492 1491 1492 1494 1494 1494 1494 1495 1496 1496 1497 1497 1498 1498 1498 1499 1499 1499 1499 1498 1498 1498 1498 1498 1498 1498 1499 1498 1498 1498 1498 1499 1499 1499 1499 1499 1500 1500 1500 1500 1501 1501
1489 1489 1491 1492 1492 1493 1494 1494 1495 1495 1496 1496 1496 1496 1496 1496 1496 1496 1496 1496 1496 1496 1495 1495 1495 1495 1495 1495 1495 1495 1494 1494 1495 1495 1495 1495 1495 1495 1495 1495 1495 1496 1496 1496
1489 1489 1490 1491 1492 1493 1494 1494 1494 1494 1495 1495 1495 1494 1494 1494 1494 1494 1493 1493 1493 1493 1492 1491 1491 1491 1491 1491 1491 1491 1490 1490 1490 1490 1490 1491 1491 1490 1490 1491 1491 1491 1491 1492
1491 1490 1490 1491 1491 1492 1492 1493 1493 1493 1493 1493 1493 1492 1492 1492 1491 1491 1490 1490 1489 1489 1488 1488 1488 1487 1487 1487 1487 1487 1487 1486 1486 1486 1486 1486 1486 1486 1486 1487 1487 1487 1487 1488
1489 1489 1489 1490 1490 1491 1491 1491 1491 1491 1491 1490 1490 1490 1489 1489 1488 1488 1487 1486 1486 1485 1485 1484 1484 1483 1483 1483 1482 1482 1482 1482 1482 1482 1482 1482 1482 1481 1481 1481 1482 1482 1482 1482
1488 1488 1488 1489 1489 1489 1489 1489 1489 1489 1488 1488 1487 1487 1486 1486 1485 1484 1483 1483 1482 1482 1481 1480 1480 1479 1479 1479 1479 1478 1478 1478 1478 1477 1477 1477 1477 1477 1477 1477 1477 1476 1477 1477
1487 1487 1487 1487 1488 1487 1487 1487 1487 1486 1486 1485 1485 1484 1483 1482 1481 1480 1480 1479 1479 1478 1477 1477 1476 1475 1475 1474 1474 1473 1473 1473 1473 1473 1473 1472 1472 1472 1472 1472 1472 1472 1471 1471
1485 1485 1485 1485 1485 1485 1485 1485 1485 1484 1483 1483 1482 1481 1480 1479 1478 1477 1476 1475 1475 1473 1473 1472 1471 1471 1470 1469 1469 1468 1468 1468 1468 1468 1468 1467 1467 1467 1467 1467 1467 1467 1466 1466
1483 1483 1483 1483 1483 1483 1483 1483 1482 1482 1481 1480 1479 1478 1477 1475 1474 1473 1472 1471 1471 1470 1469 1468 1467 1466 1465 1465 1464 1464 1463 1463 1463 1463 1463 1462 1462 1462 1462 1462 1462 1461 1461 1461
1481 1481 1481 1481 1481 1481 1481 1480 1480 1479 1478 1477 1476 1475 1473 1472 1471 1469 1468 1467 1467 1466 1465 1464 1463 1462 1461 1460 1459 1459 1458 1458 1458 1458 1457 1457 1457 1457 1457 1457 1457 1457 1456 1456
1478 1479 1479 1479 1478 1478 1478 1477 1476 1475 1474 1473 1473 1471 1470 1469 1468 1466 1465 1464 1462 1461 1460 1459 1458 1457 1456 1455 1455 1454 1454 1453 1453 1453 1453 1453 1453 1453 1453 1452 1452 1452 1451 1451
1476 1476 1476 1476 1476 1475 1475 1474 1473 1472 1471 1470 1469 1468 1467 1466 1465 1463 1461 1460 1459 1457 1456 1455 1454 1453 1452 1451 1450 1450 1449 1448 1448 1448 1448 1448 1448 1448 1448 1447 1447 1447 1446 1446
1474 1474 1474 1473 1473 1472 1472 1471 1470 1469 1468 1467 1466 1465 1464 1462 1461 1459 1457 1456 1454 1453 1452 1451 1450 1449 1448 1447 1446 1445 1445 1444 1443 1443 1443 1443 1443 1443 1442 1442 1442 1442 1441 1441
1472 1472 1472 1471 1470 1470 1469 1468 1467 1466 1465 1464 1463 1462 1460 1459 1457 1456 1454 1453 1451 1450 1448 1447 1446 1445 1444 1443 1442 1442 1441 1440 1439 1439 1439 1438 1438 1438 1437 1437 1437 1437 1436 1435
1471 1470 1469 1469 1468 1467 1466 1466 1465 1463 1462 1461 1460 1458 1457 1455 1454 1452 1450 1449 1448 1446 1445 1444 1443 1442 1441 1440 1439 1438 1437 1436 1435 1434 1434 1433 1433 1433 1432 1432 1432 1431 1430 1430
1468 1468 1467 1466 1466 1465 1464 1463 1462 1461 1459 1458 1457 1455 1454 1452 1450 1449 1448 1446 1445 1443 1441 1440 1439 1438 1437 1436 1435 1434 1433 1432 1431 1430 1429 1428 1428 1427 1427 1427 1426 1426 1425 1424
1466 1465 1465 1464 1463 1462 1461 1460 1459 1457 1456 1455 1453 1452 1451 1449 1448 1446 1444 1442 1441 1439 1437 1436 1435 1434 1432 1431 1430 1429 1428 1427 1426 1425 1424 1423 1422 1422 1421 1421 1421 1420 1419 1419
1463 1462 1462 1461 1460 1459 1458 1457 1455 1454 1453 1451 1450 1448 1447 1446 1444 1442 1441 1439 1437 1435 1434 1432 1431 1429 1428 1427 1426 1425 1423 1422 1421 1420 1419 1418 1417 1417 1416 1415 1415 1414 1414 1413
1460 1459 1459 1458 1457 1456 1455 1454 1452 1451 1450 1448 1446 1445 1443 1442 1440 1438 1437 1435 1433 1431 1430 1428 1427 1425 1424 1423 1422 1421 1419 1418 1417 1416 1415 1414 1413 1412 1411 1410 1409 1409 1408 1408